Wind_Gust
11 11 13 12 9 8 6 12 13 10 10 8 7 10 2 1 7 7 6 11 1 4 7 8 8 13 13 13 13 11 11 20 17 9 3 6 10 11 7 9 10 8 15 7 5 5 6 8 7 8 6 7 4 5 7 9 11 13 15 13 14 13 10 11 13 14 14 15 14 12 12 13 13 14 15 12 11 12 12 12 14 13 13 14 16 15
10 10 11 9 12 13 14 10 9 8 5 8 8 2 3 2 5 6 4 5 4 5 7 11 18 13 10 12 15 16 23 23 18 14 11 5 6 6 4 6 6 8 9 7 5 5 5 8 9 8 7 6 10 8 9 11 11 10 10 12 13 10 11 12 12 11 13 13 18 19 17 14 12 13 15 14 12 12 10 10 14 14 13 15 16 15
11 14 8 13 8 6 7 6 5 11 7 4 6 4 2 8 9 12 5 4 4 5 12 13 20 9 10 13 18 22 16 12 11 12 11 12 11 8 2 2 4 6 9 7 10 9 9 6 5 6 7 7 5 5 8 8 9 10 11 13 13 13 7 8 9 11 14 12 12 13 13 15 12 6 8 12 13 15 16 15 16 14 12 12 13 14
10 7 13 7 9 10 4 6 9 8 8 9 6 5 8 6 2 8 9 4 5 7 7 13 21 7 10 8 14 17 15 10 12 12 15 16 17 13 12 9 7 5 7 6 10 9 7 7 7 5 6 6 7 10 16 16 18 19 19 20 17 16 11 6 5 7 6 6 2 3 4 5 5 10 9 13 13 14 14 16 14 12 14 16 16 14
10 5 9 12 9 11 8 5 9 9 5 2 6 7 5 3 5 9 6 9 3 4 9 16 15 12 16 16 20 17 10 20 23 21 24 22 19 15 15 18 14 8 4 6 8 7 7 7 10 13 12 14 18 22 19 19 21 25 22 20 16 15 8 6 4 2 4 6 4 3 4 4 5 6 9 11 13 15 17 17 15 16 16 16 14 14
9 5 8 13 7 5 8 5 6 13 8 5 7 11 11 5 6 5 5 9 13 7 6 7 14 8 7 8 12 14 18 25 22 26 25 23 22 22 23 21 20 19 13 11 13 17 18 17 18 20 19 15 15 15 17 20 20 12 8 9 14 13 7 7 4 3 4 8 10 8 9 10 9 8 11 16 19 19 17 20 14 13 16 13 12 11
13 6 8 11 10 8 8 9 6 10 10 8 16 14 9 8 4 1 6 3 4 7 4 4 14 12 7 14 14 13 19 21 22 24 21 21 22 21 20 20 22 22 20 19 19 18 18 17 17 15 16 15 16 14 20 21 19 11 11 13 14 8 6 9 9 6 5 5 7 12 13 12 13 13 15 11 12 16 12 10 13 15 13 12 12 10
9 7 7 8 7 8 8 10 8 13 14 14 6 16 11 7 6 7 5 8 8 5 6 9 11 17 6 7 5 10 18 20 22 21 21 21 20 21 20 21 21 22 20 19 16 16 16 17 14 11 10 9 9 11 14 18 21 22 19 10 8 11 11 11 12 13 12 12 9 10 9 10 12 15 13 11 10 10 12 11 13 12 12 12 12 11
9 12 11 8 4 7 13 11 11 13 18 15 7 16 15 14 12 8 7 5 3 2 9 10 7 16 5 7 5 5 16 17 18 18 19 20 20 20 21 22 20 20 19 21 21 19 17 15 14 10 9 9 7 5 11 18 19 18 18 15 11 13 12 12 12 13 13 11 8 10 11 12 12 12 10 7 10 8 11 13 11 11 12 10 9 11
7 12 17 16 15 13 11 9 17 19 13 12 11 10 8 10 9 7 6 8 3 8 9 6 5 15 5 8 10 4 12 13 13 14 15 17 17 19 21 20 21 19 18 19 19 17 16 14 14 11 9 9 10 10 12 17 18 17 15 11 13 15 12 10 10 10 9 7 6 10 10 14 16 13 9 5 7 9 8 11 9 10 10 12 16 14
3 5 9 13 16 16 12 7 18 19 15 9 13 12 10 12 6 5 11 8 9 4 13 5 3 11 9 7 5 7 9 8 8 9 13 16 18 19 18 19 19 19 18 18 18 19 19 18 17 14 12 12 13 11 12 12 15 14 13 11 11 8 6 3 1 4 3 4 7 12 14 14 16 14 9 10 9 9 8 9 10 9 14 16 14 12
6 3 5 11 8 7 7 7 8 12 6 11 12 11 12 7 9 10 8 10 12 11 10 2 4 4 11 4 4 12 12 10 10 12 14 16 17 18 17 19 19 19 18 16 17 19 20 21 23 24 23 18 14 15 14 10 9 10 10 11 13 11 5 2 4 9 8 9 9 8 9 13 14 12 11 10 10 10 10 10 11 9 9 8 10 12
6 8 7 9 6 14 7 8 3 2 2 9 11 14 17 12 11 9 6 11 10 16 3 3 4 8 9 4 8 11 13 12 12 14 15 15 16 17 18 20 20 19 19 22 21 20 20 20 19 20 21 22 21 20 16 13 9 8 8 8 11 12 9 3 6 8 9 9 9 9 9 12 12 11 9 9 9 10 13 14 14 14 13 10 12 15
12 7 5 9 5 9 14 15 7 6 5 9 14 16 16 14 12 13 7 9 8 9 3 5 5 11 5 7 9 13 12 13 15 16 16 16 17 17 19 19 20 21 20 20 19 20 20 21 21 22 20 21 22 22 22 19 16 12 11 9 8 8 7 5 6 6 7 8 9 10 10 10 8 6 8 11 11 10 10 11 14 15 16 16 18 17
8 11 16 8 11 9 16 15 20 15 13 18 8 19 17 18 23 15 14 17 15 11 5 7 10 13 12 6 7 10 10 14 15 15 16 17 15 15 16 18 19 20 20 21 20 20 21 20 19 20 21 21 21 22 21 21 21 19 16 14 12 10 7 6 10 10 9 9 8 9 9 6 6 4 5 7 11 11 11 10 11 12 11 12 14 20
9 16 13 11 2 11 16 10 11 13 14 5 10 11 13 15 15 11 16 13 10 11 7 10 8 3 6 4 6 7 12 15 14 16 15 17 16 15 18 20 20 19 20 20 20 21 21 18 19 20 20 20 20 20 20 20 20 21 20 18 15 10 8 9 8 7 7 8 6 6 5 6 9 10 10 9 9 13 12 12 12 10 11 9 5 7
6 11 5 10 4 12 10 11 9 16 23 13 10 15 12 7 21 15 6 4 9 13 7 5 7 6 4 6 6 9 13 13 15 16 15 14 14 15 18 18 19 19 18 18 18 19 20 20 20 18 17 19 19 20 19 18 18 18 20 21 21 17 10 9 7 6 3 4 4 7 7 8 8 9 9 13 13 12 11 9 9 9 10 15 14 13
17 12 6 5 9 4 3 4 7 4 14 20 14 13 6 6 11 19 15 6 9 14 10 3 7 12 6 12 4 8 13 13 14 14 14 15 17 19 19 19 19 19 16 16 17 17 19 18 20 19 18 16 16 16 17 19 17 17 17 19 20 20 19 14 11 7 4 4 6 8 10 11 11 9 11 11 8 5 8 10 11 9 8 12 12 13
5 7 5 1 2 3 5 11 12 6 4 21 16 12 18 8 8 7 18 9 10 10 10 5 5 5 3 5 5 9 11 12 14 14 15 16 17 17 17 19 19 20 19 21 19 19 20 20 21 20 19 20 17 17 17 19 19 19 19 20 18 20 19 20 19 10 4 5 8 8 7 5 6 3 4 4 3 4 10 9 11 10 9 7 8 12
7 11 9 5 3 3 8 10 14 4 7 8 12 10 3 14 9 12 16 12 19 8 8 5 7 12 10 5 5 4 11 14 15 16 16 13 14 14 14 15 17 19 20 21 21 21 21 20 20 20 21 21 20 20 19 18 19 21 21 21 22 22 22 24 23 22 18 12 10 12 10 6 3 2 3 7 11 15 10 11 11 14 14 15 12 11
4 5 8 9 7 5 11 9 11 13 14 6 12 6 5 9 6 13 7 7 12 21 14 15 13 11 5 4 6 11 12 14 15 16 13 11 11 12 13 15 16 16 17 19 19 19 20 20 21 21 20 20 18 15 18 19 20 19 20 22 22 23 21 23 22 22 21 20 17 14 12 9 7 5 8 12 16 14 8 14 13 12 11 9 11 11
9 3 3 6 12 9 2 2 3 7 6 13 18 14 16 16 11 9 8 5 8 17 19 17 14 7 7 10 10 15 12 13 12 16 14 10 12 12 14 14 15 15 16 16 17 17 19 19 20 20 21 19 20 22 23 23 21 21 22 23 23 22 20 21 21 20 21 19 18 16 13 11 7 8 13 16 17 9 13 14 12 10 10 12 11 13
11 9 16 8 5 5 2 4 5 6 12 11 9 6 4 6 15 13 14 8 9 5 9 7 16 7 8 9 9 11 14 14 12 15 15 11 11 12 14 14 14 15 15 17 17 17 17 17 18 18 20 20 21 21 21 21 23 23 22 22 21 23 23 20 19 18 18 17 18 18 16 13 10 9 13 17 13 12 14 12 10 10 13 13 11 11
10 14 13 5 5 6 7 6 5 4 4 14 13 7 6 5 5 13 11 15 17 7 8 5 8 8 7 8 8 11 12 12 14 15 14 12 11 13 14 14 15 15 15 16 16 16 17 16 17 18 20 22 22 21 22 21 21 22 22 21 19 19 21 19 19 19 18 18 19 18 16 14 12 11 14 13 11 12 12 12 12 11 12 12 10 12
18 5 16 8 9 9 10 11 10 7 14 13 6 6 3 2 5 4 12 5 16 8 8 16 15 10 10 9 8 10 12 13 17 16 13 11 11 12 12 13 13 13 15 16 16 17 17 18 19 18 19 19 20 21 21 23 22 21 22 22 22 21 20 19 18 18 17 18 20 20 19 19 17 13 12 13 12 15 15 12 12 11 12 10 11 10
18 5 11 14 13 11 10 8 9 5 5 5 7 9 10 9 5 5 9 6 10 6 4 11 10 7 11 10 10 9 11 14 16 13 11 12 12 12 11 12 13 13 15 15 16 16 17 16 16 18 18 19 20 22 22 21 22 19 19 20 19 22 23 22 21 19 18 19 19 18 19 19 18 17 15 11 11 14 13 13 12 11 9 11 12 11
16 8 8 9 16 18 11 7 3 4 6 11 4 13 13 8 6 4 10 10 13 11 7 5 12 20 13 10 10 9 10 12 11 12 13 12 12 11 11 12 12 13 14 16 15 15 15 17 18 17 17 18 17 18 19 20 21 20 18 18 18 19 19 22 23 21 18 17 16 18 19 18 18 19 17 14 11 13 12 14 17 16 18 16 13 13
13 15 11 16 20 11 6 10 7 6 12 9 10 9 13 11 7 8 9 11 11 21 3 5 17 18 13 12 10 9 9 10 12 13 11 12 13 12 11 11 13 16 16 15 17 18 17 16 16 18 17 17 18 17 17 17 18 19 20 21 20 19 19 19 21 21 21 19 18 17 19 19 19 18 18 16 13 13 12 13 15 15 15 15 15 14
15 13 3 18 15 13 9 10 14 21 18 17 17 16 18 14 14 11 4 5 3 11 16 17 18 15 12 11 11 10 10 11 13 11 13 13 12 11 12 15 16 16 16 16 16 16 16 17 17 17 17 16 15 17 17 18 19 18 18 18 19 20 20 20 20 21 21 22 21 20 19 19 19 18 19 17 15 14 13 16 16 14 13 14 13 14
21 13 6 15 20 16 12 10 10 22 14 19 20 19 16 19 19 16 12 7 9 11 19 25 19 16 10 10 11 11 10 12 11 11 13 13 12 13 14 15 16 16 15 15 15 15 14 14 14 14 15 16 17 16 16 16 17 17 18 19 19 20 20 19 20 21 21 22 23 23 22 20 19 20 20 18 16 14 14 16 15 16 16 17 17 19
16 10 11 4 12 13 10 9 12 14 18 23 17 16 16 16 17 16 15 15 22 22 20 21 20 15 8 10 12 11 10 11 13 13 12 11 12 13 14 15 15 15 15 15 16 16 15 15 15 15 16 16 16 17 16 16 15 15 17 19 19 20 20 18 19 20 21 22 21 22 23 21 21 20 19 19 19 15 14 15 14 16 17 17 17 18
14 16 5 5 14 8 4 10 12 18 22 22 19 15 13 9 11 10 8 8 5 16 20 21 15 13 11 12 13 12 12 13 12 11 12 12 12 13 14 15 14 14 15 16 16 17 18 18 19 19 18 17 17 16 17 18 17 17 18 18 19 19 17 18 19 20 21 21 21 21 22 24 23 21 20 19 19 18 14 14 15 16 16 14 14 15
8 25 15 8 19 8 6 2 4 5 8 12 11 9 11 11 10 10 11 13 10 6 20 17 11 11 14 13 15 13 13 12 13 12 11 12 12 12 13 13 11 12 13 14 15 16 17 17 17 17 18 17 18 18 18 16 17 17 17 17 16 15 17 18 18 19 21 22 24 24 23 21 22 22 21 21 19 18 16 13 16 16 13 16 15 12
9 19 16 7 15 13 9 3 3 6 7 7 4 8 4 5 8 15 10 11 11 9 7 10 19 15 13 12 14 13 13 13 13 12 10 9 8 9 10 10 9 9 10 12 13 13 14 16 16 16 15 15 15 16 15 15 16 15 14 15 15 17 18 18 19 19 21 22 24 25 25 23 21 21 21 20 20 18 19 13 14 11 10 11 11 13
14 12 10 6 21 18 6 5 8 7 7 6 4 6 13 14 18 22 17 15 15 17 21 20 16 15 13 13 15 16 15 14 13 13 12 12 8 8 9 9 11 12 11 12 13 14 15 14 14 15 17 18 18 17 17 19 18 16 17 18 18 18 19 19 19 21 21 22 23 24 26 25 23 21 20 20 19 19 20 20 20 15 8 9 9 9
12 17 12 12 10 12 9 8 16 10 4 7 9 9 9 13 10 17 17 14 11 11 14 19 15 16 16 15 14 14 16 15 13 12 11 10 9 8 10 10 10 10 11 11 11 11 12 13 13 14 15 14 16 17 16 17 16 16 17 16 19 19 19 19 20 21 21 22 22 23 23 23 23 21 19 21 20 20 20 20 20 18 19 14 13 16
19 11 14 15 6 15 10 8 10 9 9 7 10 6 8 6 4 6 12 7 8 3 9 16 16 14 15 13 15 13 12 12 14 12 10 9 8 8 8 9 10 9 9 9 8 9 9 10 11 12 12 13 13 15 15 15 14 14 16 18 19 18 19 20 22 22 21 20 22 22 23 23 22 20 19 21 23 22 21 21 21 20 17 16 19 21
4 15 9 17 5 9 15 14 11 5 10 12 3 5 2 2 2 4 12 7 6 8 11 15 16 15 14 13 12 12 9 6 11 9 8 7 7 6 7 8 8 9 9 9 10 10 12 11 11 12 11 11 13 13 13 12 13 13 15 17 18 19 19 20 21 20 20 21 21 21 21 22 22 21 19 21 23 21 19 19 20 19 17 14 21 24
17 17 12 16 14 10 8 14 12 13 9 3 9 3 1 1 4 4 9 8 4 4 11 13 16 14 16 17 13 8 6 6 5 5 3 3 5 6 8 9 8 8 8 8 9 10 10 11 9 10 12 12 14 15 13 13 12 13 15 15 16 17 20 20 19 19 20 19 19 19 20 21 23 22 19 18 20 22 22 20 19 18 18 16 23 24
17 11 11 16 11 7 10 9 9 6 8 3 2 2 2 1 4 3 4 9 7 2 11 13 15 15 12 10 11 7 3 7 8 8 4 3 4 5 7 8 9 10 10 9 9 6 5 7 12 14 14 14 13 11 13 12 12 13 14 14 14 19 19 19 17 16 15 17 17 17 19 20 23 23 21 17 17 20 22 20 20 22 20 19 19 23
11 9 13 12 8 9 10 6 6 4 3 2 2 3 4 5 4 5 8 8 8 5 7 12 12 11 11 10 8 5 5 4 11 10 5 3 7 7 6 5 5 5 7 9 11 9 10 9 7 8 8 9 11 11 11 11 12 14 14 14 17 19 17 14 15 15 15 16 18 19 19 20 20 22 22 19 15 17 20 22 20 22 21 19 16 22
6 7 4 8 10 8 4 9 8 4 3 3 2 3 4 6 7 8 6 7 13 10 7 10 13 9 10 7 9 9 11 13 12 7 7 7 6 4 5 7 9 10 10 9 11 12 11 12 12 12 12 11 13 12 11 11 13 12 13 16 19 17 14 14 14 14 15 16 17 17 20 21 21 20 20 19 16 15 19 18 18 19 18 17 16 21
4 10 6 7 9 7 8 10 4 7 6 5 1 3 5 5 3 10 16 10 10 11 12 8 10 10 14 14 13 15 13 11 9 8 7 6 6 6 5 6 6 7 8 10 12 13 12 12 13 13 11 12 11 11 12 13 13 12 11 17 16 15 14 13 14 14 14 16 18 17 18 19 21 21 20 20 18 16 17 16 20 19 18 17 18 19
2 13 8 7 10 11 8 12 11 3 5 4 3 7 4 3 14 14 16 15 10 11 13 13 11 12 15 18 16 13 12 12 8 7 7 5 4 4 4 4 4 6 7 7 5 8 9 11 11 12 10 11 12 12 12 11 13 14 15 16 13 13 15 15 15 14 14 15 16 17 17 17 19 19 19 20 19 19 19 19 17 18 18 19 19 19
6 7 7 14 6 8 9 6 4 6 6 6 6 8 11 11 12 9 11 15 17 13 9 15 15 12 13 17 15 13 12 7 8 4 5 3 3 4 5 5 5 6 7 8 8 10 9 10 9 11 13 12 13 13 12 10 13 14 15 15 12 13 13 13 13 14 14 14 15 16 15 16 17 17 18 18 19 20 18 17 17 19 17 17 17 19
8 11 9 18 17 16 18 11 10 11 12 14 13 11 16 13 11 12 14 16 7 9 8 14 13 13 13 12 16 11 10 8 8 5 5 4 3 4 4 6 8 8 6 6 8 10 8 8 8 10 12 14 12 14 13 13 10 14 14 14 14 13 12 10 12 13 13 13 13 13 14 16 15 16 16 16 16 17 16 16 17 17 17 17 17 17
2 2 3 17 14 7 12 5 13 14 12 13 15 12 11 12 10 8 11 11 11 10 11 9 13 12 11 11 10 11 9 6 7 5 4 3 2 2 4 4 6 5 5 8 7 6 9 7 10 11 11 12 12 12 12 11 13 12 12 13 13 13 11 11 12 12 12 13 12 11 12 13 14 15 16 15 14 15 16 16 15 16 16 15 15 15
6 3 18 9 8 8 15 12 13 14 13 11 12 13 12 11 12 9 9 9 10 10 10 10 11 10 8 10 8 10 8 5 8 5 2 1 1 2 4 5 6 8 8 5 6 6 6 8 7 8 8 11 12 11 12 12 12 13 13 13 13 12 11 12 12 11 11 11 9 10 10 11 9 12 12 14 15 16 16 15 13 15 15 14 13 12
7 5 11 7 16 20 18 15 15 15 15 12 10 8 8 10 13 12 11 12 11 12 10 8 6 8 8 9 7 9 8 4 4 5 3 1 2 3 4 5 5 6 7 8 8 6 6 5 9 8 8 10 9 9 11 11 12 12 13 13 12 12 11 12 11 12 12 12 11 11 9 8 9 9 9 10 12 13 13 12 12 10 10 10 9 7
10 10 13 19 20 14 13 18 21 23 18 9 6 8 10 9 12 13 11 12 10 11 9 10 8 6 8 6 9 8 8 5 2 2 2 2 2 4 4 5 6 6 7 5 6 6 8 7 5 8 9 10 8 7 9 11 11 11 11 11 11 11 11 11 12 12 12 12 12 11 10 8 7 7 8 8 8 10 12 10 13 11 11 9 10 12
9 14 15 17 21 18 12 18 5 11 18 10 12 7 10 9 12 13 12 10 7 7 9 11 10 8 7 3 2 8 6 7 5 2 1 2 4 4 4 4 6 8 9 7 9 11 10 10 9 7 9 10 9 9 9 10 11 10 12 11 10 9 9 10 11 12 12 12 11 11 9 6 6 6 5 5 6 7 9 10 14 14 15 12 10 11
Wind_Speed
4 5 7 7 5 6 5 8 9 6 7 5 5 6 2 0 4 4 4 7 1 0 2 4 5 7 7 7 7 6 6 12 11 6 2 0 1 3 3 3 4 5 9 4 3 2 3 4 3 2 1 1 2 3 4 5 6 6 5 5 7 5 6 6 6 6 6 6 6 6 7 7 7 8 8 7 6 6 6 7 7 7 6 8 9 8
5 5 6 6 8 9 10 6 6 6 4 6 5 2 1 1 2 3 1 2 2 2 2 7 11 8 6 8 8 7 14 15 12 9 8 3 1 0 0 3 4 5 5 5 4 4 3 3 3 3 3 1 1 1 3 4 4 4 4 5 5 2 5 5 5 5 6 6 7 7 7 6 5 7 8 7 6 7 6 6 8 8 7 8 8 8
4 7 5 9 5 4 5 4 4 8 4 3 4 3 1 2 5 8 3 2 2 3 1 7 12 5 6 5 10 13 10 7 6 8 7 8 8 5 2 2 3 4 5 4 5 5 5 4 3 2 3 4 4 2 2 1 1 1 1 5 7 8 3 1 1 3 4 3 3 3 3 6 2 1 4 6 7 7 8 9 8 7 7 7 7 8
4 3 9 4 6 7 3 4 6 6 5 5 4 3 4 3 1 1 4 2 3 2 3 7 13 4 7 4 8 10 9 4 6 8 10 11 12 9 8 6 2 3 2 2 3 5 5 4 4 2 3 4 5 7 8 10 9 9 11 9 6 7 6 3 1 1 1 2 1 1 0 1 2 2 1 4 4 5 7 9 8 6 8 9 8 8
5 3 6 8 6 7 5 3 6 6 3 1 4 3 2 1 2 4 2 3 1 3 5 10 7 5 9 9 10 10 6 9 12 13 14 13 12 9 10 11 9 6 3 4 5 4 4 5 7 9 8 9 8 10 9 7 6 1 6 8 9 8 5 4 2 2 3 4 3 2 2 3 3 3 4 4 1 7 8 7 7 8 9 9 8 8
5 1 6 9 4 4 5 3 4 8 6 1 4 7 6 3 4 3 3 5 4 1 1 4 4 2 4 5 7 7 7 13 13 16 16 14 14 13 14 14 13 12 9 8 9 11 12 11 11 11 10 9 8 8 7 8 7 5 5 5 5 1 2 3 1 1 1 4 5 4 4 4 3 4 5 8 10 10 10 11 8 7 7 6 6 6
5 3 5 7 6 5 5 5 4 6 6 4 6 8 5 5 3 1 3 1 1 2 2 1 5 2 2 6 7 7 8 12 12 15 13 13 12 12 12 11 12 13 11 10 10 11 12 10 9 8 7 6 10 8 7 10 12 9 5 4 1 1 3 5 6 5 3 3 3 5 7 5 5 5 5 2 4 7 4 3 6 7 6 6 7 6
3 5 4 5 4 4 4 5 3 7 8 3 2 11 7 4 4 4 2 5 3 2 1 5 4 7 1 4 3 6 6 12 14 13 14 12 13 13 13 13 13 13 11 10 10 10 10 10 8 6 3 2 5 6 7 8 7 12 13 7 6 7 6 7 8 8 7 7 5 3 1 4 6 7 7 4 4 3 4 4 6 7 7 7 7 7
6 5 7 5 3 3 7 5 8 8 7 4 4 10 9 10 7 5 4 2 0 1 5 4 3 7 0 2 3 4 6 11 12 11 12 12 12 12 12 12 12 12 12 13 12 11 11 10 9 7 6 7 5 3 6 6 4 2 2 3 5 7 6 6 7 7 7 6 4 4 3 5 5 5 5 1 3 4 6 8 7 6 6 5 6 7
2 7 11 10 8 6 5 6 12 11 5 5 6 4 5 6 5 4 3 4 1 2 3 1 2 5 1 3 3 0 5 8 7 8 9 9 10 11 11 13 13 12 11 10 12 11 10 9 9 7 6 6 5 6 7 7 7 8 7 8 6 7 5 1 2 4 5 3 4 4 4 9 5 4 4 1 3 5 4 7 5 3 4 6 8 8
1 4 5 5 6 8 7 4 11 13 7 6 9 7 5 6 4 3 5 2 4 1 5 0 2 4 1 2 2 2 3 4 4 4 7 9 11 12 11 11 10 10 10 10 11 12 12 12 12 9 8 7 8 6 5 7 8 8 7 7 7 5 3 2 0 2 1 3 3 3 3 7 9 8 5 5 5 6 6 5 6 5 7 7 7 7
3 2 1 3 4 3 4 3 2 3 3 8 3 5 7 4 4 4 3 5 4 3 4 2 1 2 4 1 1 6 7 5 4 6 8 10 11 11 11 10 11 11 10 10 10 11 13 14 15 15 15 12 9 10 9 6 5 6 6 6 7 8 4 1 2 5 4 6 6 5 6 8 8 6 6 6 6 6 7 6 7 5 4 4 4 7
2 3 2 5 2 9 2 4 2 1 0 5 6 8 9 2 2 0 1 2 2 6 1 2 3 4 5 2 4 7 8 7 7 7 8 10 10 11 11 11 10 10 12 12 12 12 12 11 11 12 12 14 14 12 11 9 6 4 2 3 5 5 6 2 4 5 5 4 4 6 5 4 3 3 3 3 4 6 7 7 8 8 8 6 7 8
5 3 2 4 2 3 8 7 2 2 1 5 7 7 7 3 3 4 1 0 3 3 1 3 2 3 2 3 5 8 7 8 9 9 10 10 11 11 11 11 11 12 12 11 11 11 11 12 12 12 11 11 12 13 13 12 10 8 6 5 4 4 3 3 4 3 3 1 2 3 3 2 2 3 2 3 4 5 5 4 6 7 8 7 9 9
3 3 7 4 2 4 7 7 11 8 6 8 3 9 7 7 5 3 3 5 6 4 2 3 4 3 5 1 5 6 6 9 8 9 10 10 10 10 10 11 12 12 13 12 11 11 12 11 12 12 12 12 12 14 13 12 12 11 10 9 8 7 5 4 4 5 6 5 3 2 1 1 1 2 2 3 4 5 5 4 5 5 5 6 4 5
5 5 6 6 1 6 9 5 5 7 6 0 4 5 6 6 7 4 6 4 3 4 3 5 1 1 1 2 2 5 7 9 8 10 10 10 9 8 9 11 11 11 11 11 12 13 13 11 12 11 11 11 12 13 11 13 12 12 12 12 10 7 6 5 5 4 3 3 2 1 1 4 6 6 6 5 5 5 5 5 6 5 5 4 2 1
3 2 2 6 2 8 6 6 3 8 5 4 5 5 5 2 11 6 2 2 6 7 1 1 2 1 2 2 3 6 8 8 9 10 9 8 8 9 10 10 11 10 10 11 11 11 13 12 12 11 11 11 11 11 12 11 11 12 12 13 14 12 7 6 5 4 2 3 3 4 4 5 5 5 6 7 7 6 4 3 2 3 2 7 6 7
7 4 2 2 6 1 1 3 4 2 6 7 3 6 2 3 5 7 5 1 3 5 1 1 2 5 2 2 2 5 8 8 9 8 8 9 9 11 10 10 11 11 10 10 10 10 10 10 12 11 10 10 10 10 11 12 11 10 10 11 13 13 13 10 8 5 3 3 4 4 3 3 4 4 4 3 2 1 3 5 4 3 2 4 6 6
2 1 1 1 1 1 3 7 7 4 3 11 8 6 6 1 3 3 6 1 2 1 1 1 2 1 1 1 1 6 7 8 8 7 7 9 10 10 10 11 11 10 9 10 10 10 10 11 11 11 12 12 10 10 10 11 11 11 12 13 11 13 12 13 12 8 3 4 5 4 4 3 3 2 3 2 0 2 6 5 5 4 4 3 3 4
2 2 2 2 1 1 4 4 4 1 5 5 7 4 1 5 3 4 4 5 8 3 3 0 3 3 4 1 3 2 7 9 8 7 8 7 8 7 8 8 10 10 11 11 11 10 11 11 12 11 11 12 12 11 11 11 11 14 13 13 14 14 14 15 14 13 11 8 6 7 6 4 2 1 2 5 6 5 4 5 7 8 8 9 7 7
1 1 1 3 4 1 2 3 5 7 7 3 5 1 1 3 2 5 2 2 4 7 5 5 4 3 1 1 3 6 7 8 8 9 7 6 7 7 8 9 9 10 10 10 10 10 11 11 12 12 11 10 10 9 10 11 12 11 12 13 14 14 13 14 13 12 11 10 10 9 8 6 5 4 5 8 8 3 5 8 5 5 7 6 7 7
1 1 0 2 6 4 1 1 2 4 2 6 8 6 8 8 5 5 2 2 4 7 6 6 4 2 3 4 5 9 6 8 7 10 8 6 6 7 8 9 9 9 10 10 10 10 10 11 12 12 11 11 11 13 15 13 12 13 13 13 13 13 11 12 12 12 12 11 11 10 8 7 4 5 8 10 6 5 8 7 5 5 5 7 7 7
4 3 7 4 1 2 1 1 3 2 6 5 5 2 2 2 7 5 5 3 4 1 4 3 6 3 3 4 4 5 7 8 6 7 9 6 7 7 8 8 8 9 9 9 10 10 10 10 11 10 11 12 12 12 13 13 13 13 13 13 12 12 13 11 10 9 9 10 11 12 10 8 6 6 8 9 6 6 7 6 6 6 7 7 6 7
6 3 5 2 2 3 4 3 2 2 2 8 7 4 3 1 1 6 3 7 7 3 3 1 2 2 3 4 4 6 8 7 5 8 9 7 6 7 9 9 9 9 9 10 9 9 9 9 9 10 12 12 12 13 13 11 12 13 12 11 11 11 13 11 11 10 9 9 10 11 11 9 8 6 8 7 6 8 8 7 6 6 7 7 6 7
2 1 7 2 2 4 4 4 3 3 6 5 2 3 2 0 3 2 6 2 7 4 5 7 6 4 4 5 5 5 7 8 8 10 8 7 6 7 7 7 7 8 9 10 10 10 10 11 11 11 11 11 12 12 11 12 13 13 13 13 13 12 12 11 10 10 10 10 11 10 10 12 11 9 7 6 6 9 9 7 6 5 6 5 6 6
8 1 3 6 5 4 2 1 2 2 1 0 2 4 6 5 3 2 4 1 4 3 2 4 3 2 6 6 6 5 6 9 10 8 6 7 7 7 6 7 7 8 9 9 10 10 11 9 9 10 11 10 11 11 11 11 11 11 11 12 11 13 13 12 11 11 11 10 11 10 11 10 10 10 10 7 5 9 8 8 7 5 4 5 6 5
5 3 4 4 8 9 4 2 1 1 3 4 2 9 7 4 3 2 4 5 6 5 3 2 6 10 7 6 6 5 6 8 7 6 8 7 7 7 7 7 7 7 8 9 8 8 9 10 12 11 11 10 10 11 10 10 11 11 10 11 12 11 11 12 12 12 10 10 10 10 12 11 11 10 9 9 7 8 8 9 10 10 10 9 8 8
5 7 6 10 13 6 3 6 4 4 7 5 5 6 8 7 3 4 4 4 6 11 0 1 11 9 8 7 6 5 5 6 7 8 7 6 8 7 7 7 7 8 9 8 10 11 11 10 10 11 11 11 11 10 10 10 9 10 10 11 11 11 11 9 12 12 12 11 10 10 11 11 12 11 10 9 8 8 7 7 7 7 7 7 8 9
6 5 2 11 9 9 5 5 9 12 12 10 11 11 12 9 9 7 2 2 0 4 8 10 12 9 7 7 7 6 6 7 8 7 7 8 7 7 7 8 9 9 9 9 9 9 10 10 10 11 11 10 10 11 11 11 11 10 10 9 10 10 11 10 11 12 12 13 12 12 11 11 11 10 11 10 9 9 8 8 9 8 8 8 8 8
8 6 3 9 12 10 8 6 5 14 8 12 13 13 11 13 12 10 8 4 5 6 11 15 12 10 5 6 7 7 6 7 7 6 7 8 7 7 8 8 9 9 9 9 9 9 9 9 9 9 9 10 11 11 10 10 10 10 11 11 11 11 11 10 10 12 12 12 13 13 13 12 11 12 11 10 9 9 8 9 8 8 8 9 9 9
7 2 7 0 6 7 7 6 8 9 11 14 11 11 11 10 11 10 9 10 14 13 13 14 13 9 4 7 8 7 6 6 7 8 8 7 7 8 8 8 9 9 9 9 9 9 9 10 10 10 10 10 11 10 9 9 9 9 11 11 11 11 11 10 11 10 11 13 12 13 13 12 12 12 11 10 11 9 8 9 8 8 9 9 9 10
6 6 1 0 6 3 2 6 8 12 15 15 12 10 9 6 7 5 4 4 1 9 11 13 8 5 6 8 8 8 7 8 8 7 7 7 7 7 8 8 8 8 9 9 9 9 10 10 10 11 11 11 11 10 10 10 10 10 11 11 11 10 10 10 11 12 11 11 12 12 13 13 14 13 12 10 10 11 9 8 8 9 9 8 8 8
2 9 6 3 9 2 2 0 2 3 5 7 6 5 7 6 6 6 7 8 6 4 11 8 4 5 8 8 9 8 8 8 7 7 7 7 7 7 7 7 7 7 8 9 10 10 9 10 10 10 11 10 10 11 11 10 10 10 9 10 9 9 10 11 11 11 12 12 12 13 12 12 13 13 12 12 10 10 9 7 7 8 6 9 9 7
5 10 6 2 5 5 5 1 2 3 2 1 2 5 2 2 5 9 5 6 6 4 2 4 9 8 8 7 8 8 8 7 7 7 6 5 5 5 6 6 6 5 6 8 8 8 9 9 9 9 9 9 9 9 9 8 8 8 7 7 7 9 10 10 12 12 13 13 13 12 12 12 12 13 12 12 12 9 11 8 7 6 6 4 5 6
8 6 5 2 6 6 2 3 4 0 0 3 2 2 6 8 12 15 11 10 10 11 14 13 10 9 7 8 9 10 10 9 9 8 8 7 5 5 6 6 6 7 7 7 8 8 9 9 9 9 10 10 9 9 9 10 9 8 8 8 9 10 10 11 11 13 13 13 14 14 14 13 13 13 12 12 12 11 9 9 11 10 6 2 3 3
6 9 4 5 3 4 3 2 4 2 2 4 4 5 5 6 4 11 11 9 7 7 8 11 9 9 10 9 8 8 10 10 8 7 7 6 6 5 5 5 5 5 6 6 7 7 7 9 9 9 9 8 9 9 9 9 8 8 9 9 10 10 10 10 12 12 12 13 13 14 13 12 12 12 11 11 12 11 10 11 10 9 9 8 5 5
11 5 5 6 2 5 3 4 5 4 5 4 5 2 2 2 1 2 5 3 4 1 5 10 10 9 9 8 9 8 8 7 8 6 6 6 5 5 5 4 4 5 5 6 5 6 6 7 7 8 7 8 8 9 9 9 8 8 9 11 11 11 11 11 12 12 12 12 13 13 13 13 12 12 11 11 12 12 11 11 11 11 9 8 6 8
2 7 4 8 1 3 7 6 3 0 3 6 1 1 0 0 1 2 6 3 3 5 7 9 10 10 9 8 8 8 5 4 5 4 4 4 4 4 4 4 4 5 5 5 6 6 8 7 7 7 6 7 8 8 8 8 8 8 9 10 10 11 11 12 12 12 12 12 12 12 12 12 12 12 12 11 11 11 11 10 10 10 9 8 7 8
10 10 7 9 5 5 3 5 3 4 2 1 6 1 0 1 3 2 5 2 1 2 7 8 10 8 10 10 7 4 2 2 2 2 1 1 2 3 4 5 4 4 5 5 5 7 7 6 5 6 8 8 9 9 8 8 8 8 9 9 10 10 12 12 12 11 11 11 11 11 11 11 12 12 12 10 10 11 11 11 10 9 9 8 6 7
10 5 6 8 5 1 5 3 3 1 2 2 1 0 1 1 2 0 1 2 4 0 7 8 9 9 7 6 7 4 1 3 4 4 2 2 2 2 3 5 6 6 6 6 6 4 3 4 8 9 9 8 8 7 8 7 7 8 8 9 8 11 12 11 9 9 9 9 10 10 11 11 12 12 12 11 10 9 10 10 11 11 11 11 7 6
5 4 6 6 4 5 6 1 2 1 1 1 1 1 2 3 1 2 3 3 4 3 5 7 8 7 7 6 5 2 2 0 6 6 3 2 4 4 4 3 3 3 4 6 7 7 6 5 4 5 5 6 7 7 7 6 7 8 8 8 10 12 10 9 7 8 8 9 10 11 11 10 11 13 12 11 9 8 9 9 11 11 12 11 8 7
3 3 1 3 6 4 1 4 2 2 1 1 1 1 2 2 2 4 2 3 8 6 4 7 9 6 6 4 4 4 5 8 8 5 4 4 4 3 3 4 5 6 5 5 7 7 6 6 7 8 8 7 8 8 7 7 8 8 7 8 11 9 8 8 8 7 8 10 10 10 11 11 12 11 10 11 9 9 10 9 9 9 10 9 9 10
0 3 2 3 2 2 3 4 1 1 1 3 0 1 2 1 1 4 8 5 5 6 7 5 6 6 8 7 8 9 8 7 6 5 4 4 4 4 3 3 4 4 5 7 8 8 7 7 8 8 7 7 7 7 7 8 9 8 7 10 9 8 8 8 8 8 8 10 11 10 11 11 13 11 10 11 10 10 10 9 10 11 10 10 11 11
0 4 1 1 3 4 2 2 2 0 1 2 1 3 0 1 7 8 8 8 5 6 7 7 5 6 9 11 10 8 7 8 5 5 4 3 3 3 3 3 3 4 5 5 4 5 6 7 7 7 7 7 7 7 7 7 8 9 9 10 8 8 8 8 8 8 9 9 9 10 10 10 11 11 10 11 11 11 11 11 10 10 10 10 10 10
3 3 3 5 2 2 2 2 1 2 2 3 3 4 6 7 7 5 6 8 9 6 5 7 8 7 8 11 9 8 7 5 5 3 3 2 2 3 3 3 3 4 5 5 5 6 6 6 6 7 8 8 9 8 8 6 8 10 10 9 7 8 7 7 8 8 9 8 8 9 8 9 9 10 10 10 11 11 10 11 10 10 9 9 9 8
3 5 5 7 7 8 9 6 5 6 7 8 8 6 9 9 7 7 8 8 4 5 4 8 8 8 8 8 9 7 6 5 5 3 3 3 2 2 3 4 5 5 4 4 5 7 5 5 6 7 8 9 8 9 8 8 6 9 9 9 9 8 7 6 7 8 8 8 7 8 8 9 9 9 9 10 9 10 9 9 9 9 9 9 9 9
1 1 1 5 7 2 5 3 7 8 7 8 9 7 7 7 5 5 6 6 6 6 7 6 8 7 7 7 7 7 6 4 5 3 2 2 1 2 3 3 4 3 3 5 5 4 5 4 6 6 7 8 8 8 8 7 8 8 7 8 8 8 7 7 7 7 7 8 7 7 7 8 7 8 9 9 8 8 8 9 8 9 9 8 8 8
3 1 8 5 5 3 6 7 8 9 8 7 6 7 7 7 8 6 5 5 6 6 6 6 7 7 5 6 5 6 5 3 6 2 1 0 0 2 2 3 3 5 5 3 3 4 4 4 4 5 5 6 7 7 7 7 7 8 8 8 8 8 7 8 7 7 7 7 6 6 6 6 8 8 7 8 8 8 8 8 7 8 8 7 7 6
2 2 4 3 6 9 11 9 9 10 10 8 6 5 4 6 8 8 7 7 7 8 6 5 4 5 5 6 5 6 5 2 3 3 2 0 1 2 2 3 3 3 4 5 5 4 4 3 5 5 5 6 5 6 7 7 7 8 8 8 7 7 7 8 8 7 8 7 6 6 6 5 5 5 5 5 7 7 7 7 6 6 6 6 4 4
5 3 6 10 9 6 5 9 12 10 7 5 4 5 6 6 8 8 7 7 7 7 6 7 5 4 5 4 6 5 5 3 1 1 1 1 1 2 2 3 4 4 5 3 4 4 5 5 4 5 6 6 5 5 6 7 7 7 7 7 7 7 7 7 7 8 8 7 7 6 6 5 4 4 4 5 5 5 6 8 10 7 5 4 7 9
4 6 6 7 9 8 7 12 2 6 10 6 7 5 6 6 8 9 7 7 5 5 6 7 7 5 4 2 1 5 4 4 3 1 0 1 1 2 2 2 4 5 5 5 6 7 6 6 5 5 6 6 6 6 6 6 7 6 7 7 6 6 6 6 7 7 7 7 6 6 5 4 3 4 3 3 4 4 5 6 8 11 11 8 8 9
Wind_Direction
137 151 183 190 186 194 188 165 180 180 148 126 96 108 115 97 281 284 268 252 267 30 245 195 64 47 24 14 5 350 8 28 15 6 8 38 309 275 278 261 263 249 250 297 289 253 233 242 242 237 198 160 130 157 175 191 196 198 195 187 198 181 157 163 166 167 169 170 176 193 188 188 181 171 160 164 172 178 190 195 197 193 188 179 185 200
93 149 219 190 193 182 190 182 110 92 107 136 113 102 79 148 278 239 270 350 312 112 333 73 78 48 29 18 15 15 38 24 8 1 15 355 89 114 250 283 275 274 297 324 354 2 357 340 337 352 0 5 276 211 196 204 198 194 186 198 213 158 173 181 174 171 183 193 196 190 193 191 185 167 167 169 172 174 172 189 200 195 190 192 194 189
157 185 218 218 187 95 76 110 122 138 123 80 148 140 85 280 245 285 275 320 330 90 347 89 78 31 349 353 27 34 37 30 14 31 25 22 12 1 323 220 258 278 284 8 26 27 21 18 15 11 10 354 331 332 290 271 204 5 19 22 4 352 350 26 120 184 197 208 229 213 197 195 132 69 159 167 179 185 183 192 203 194 187 193 202 196
166 279 233 188 137 119 62 95 106 74 72 116 98 98 209 232 50 304 290 48 351 78 118 106 92 50 348 343 33 28 31 16 32 44 41 34 29 10 349 326 283 231 291 37 53 45 56 55 62 55 26 14 8 4 8 1 19 27 34 32 17 337 324 13 352 303 286 176 308 292 88 113 104 136 88 100 152 188 201 202 197 196 190 193 199 197
181 201 183 127 152 144 136 128 119 133 152 339 141 133 157 179 228 160 253 342 311 45 114 109 73 34 11 13 7 2 357 30 30 36 38 34 32 29 26 27 17 360 17 47 45 60 84 69 48 42 33 37 32 32 29 37 46 115 203 175 169 197 196 157 174 150 152 152 126 134 89 106 94 90 149 108 88 194 213 206 199 203 201 194 193 203
230 246 118 131 136 144 128 134 177 135 175 181 233 177 187 169 189 272 325 25 21 13 326 125 56 41 320 17 20 345 7 37 28 39 34 28 28 27 31 31 27 28 26 34 47 51 49 44 52 53 54 73 87 102 149 154 157 220 249 210 212 106 98 98 110 101 165 179 175 161 170 175 182 190 172 175 185 198 201 207 197 202 208 194 190 202
188 158 124 150 157 165 164 175 211 154 163 141 255 183 181 169 163 192 269 81 3 144 214 91 126 156 316 28 3 347 29 41 35 36 27 24 26 29 31 29 31 31 31 35 34 27 38 38 46 50 51 75 108 140 167 182 170 161 243 271 19 168 153 146 162 176 186 210 211 200 206 185 207 210 235 234 226 211 199 155 178 194 198 195 193 197
123 171 120 98 112 149 139 201 230 145 127 202 243 171 166 129 166 206 150 177 211 247 314 53 113 131 87 4 357 312 23 42 38 29 26 27 30 32 32 32 33 32 32 39 39 36 29 39 47 56 59 98 146 174 197 223 201 170 180 202 196 200 183 173 171 183 186 186 191 196 21 256 237 212 229 192 223 254 160 200 192 188 190 190 193 190
148 175 157 148 124 129 189 202 178 164 138 216 192 154 165 172 188 149 151 161 241 116 264 332 358 73 45 282 314 309 27 32 37 25 27 30 32 34 32 31 29 31 31 32 33 33 33 32 31 28 20 351 341 317 297 298 318 348 322 167 192 211 197 180 173 180 191 191 162 122 159 245 235 296 269 142 155 201 193 194 194 185 178 173 190 200
281 166 188 163 156 195 216 201 158 166 161 259 140 75 81 79 67 116 118 108 339 74 268 273 27 109 296 298 344 327 59 43 31 27 30 35 41 35 30 28 28 29 28 29 28 24 26 23 23 25 24 19 11 343 343 340 350 8 11 355 344 326 326 324 170 171 190 184 107 117 186 215 210 211 256 251 193 201 195 191 173 171 136 185 202 198
171 317 149 110 178 202 189 186 166 173 185 136 111 92 55 43 57 40 63 91 75 25 260 252 338 128 123 284 303 8 52 49 41 35 38 42 42 38 34 29 24 22 22 25 21 22 18 10 11 12 24 20 10 10 18 6 352 353 355 353 335 321 310 331 3 149 130 97 145 174 218 230 217 203 191 191 199 194 194 192 162 173 191 201 206 202
357 47 123 234 164 76 106 102 247 195 107 125 119 123 87 21 17 29 343 34 111 264 265 324 111 89 140 243 80 80 90 77 71 65 49 47 42 40 32 28 24 22 21 19 21 17 13 12 11 10 12 12 6 4 10 6 356 358 349 343 328 317 298 302 78 100 147 193 187 171 199 230 236 198 183 192 200 197 199 184 176 179 188 164 207 198
279 240 242 313 223 141 107 85 16 68 309 82 99 107 128 213 52 275 16 178 162 177 23 328 342 41 42 57 112 103 85 87 72 60 58 52 46 40 33 28 26 23 20 20 20 15 11 11 7 7 7 11 12 7 359 353 344 339 341 343 336 341 321 223 171 196 213 219 194 190 216 251 305 276 169 177 220 208 208 198 180 176 176 162 193 202
267 284 305 267 322 193 132 134 166 106 216 120 135 151 125 128 101 161 275 261 319 295 259 11 344 89 147 72 66 84 81 72 76 70 62 54 50 41 32 23 21 22 22 20 18 17 11 10 3 2 4 8 8 6 4 360 356 344 336 339 341 328 335 331 291 265 253 260 7 12 358 322 313 287 208 191 222 236 248 228 216 198 185 178 199 199
118 211 265 124 246 181 160 162 177 165 153 191 130 151 173 138 152 168 179 164 195 191 284 307 69 234 160 218 93 68 84 83 75 79 70 60 48 41 32 27 25 23 18 13 15 16 12 7 6 4 2 2 4 2 1 359 358 358 353 343 342 342 346 317 348 348 340 357 4 13 27 220 198 230 211 191 219 245 243 242 251 232 168 184 211 264
184 201 253 201 191 152 171 196 133 111 104 116 158 68 111 205 146 128 202 145 168 119 34 1 104 233 129 303 78 103 86 78 71 61 63 56 51 37 30 26 24 23 21 16 11 7 8 7 5 6 3 1 356 359 358 359 356 356 355 355 348 345 335 335 344 343 350 323 303 238 185 208 204 189 180 179 195 217 232 234 220 226 202 130 85 44
37 292 269 314 122 171 202 137 194 148 150 204 100 173 214 158 103 93 60 66 99 66 35 297 149 85 351 272 89 137 95 81 68 55 44 42 45 37 29 22 22 21 20 17 13 9 3 2 4 3 359 360 356 355 352 352 354 355 356 359 358 352 342 332 328 309 293 241 239 234 211 209 232 232 207 200 190 190 200 234 298 299 117 124 166 168
135 235 301 139 215 291 178 122 106 39 147 84 140 220 142 97 105 126 163 347 55 140 194 40 183 158 152 174 162 134 106 88 74 60 42 33 33 33 22 19 16 16 16 14 12 8 5 2 359 359 357 357 353 351 350 354 353 357 357 0 359 353 354 343 320 309 268 278 277 271 263 273 293 311 318 349 16 120 175 184 198 182 244 216 165 170
124 268 305 331 199 350 1 91 47 18 355 157 184 152 111 183 172 339 97 125 119 89 156 354 135 343 164 251 261 180 130 114 91 79 56 34 30 24 17 11 11 13 15 13 11 4 2 359 357 357 352 350 351 354 356 355 357 359 4 1 3 355 355 354 344 328 294 295 293 298 308 294 280 319 332 330 88 175 217 198 154 169 190 213 216 178
52 147 286 322 89 332 40 71 154 300 21 43 105 86 317 102 145 128 193 164 109 171 87 357 152 225 193 234 209 178 142 121 109 77 66 46 38 29 23 12 10 8 9 8 4 3 359 355 356 356 352 351 348 347 355 357 360 4 3 1 358 355 1 357 354 351 348 335 313 306 309 302 295 184 225 241 238 221 230 232 203 196 193 195 202 185
95 115 129 284 322 58 128 354 174 162 128 58 46 20 30 28 215 103 34 75 154 155 161 139 182 244 231 255 73 65 88 108 118 99 74 52 35 34 28 23 15 11 7 4 2 358 356 354 353 352 352 347 344 347 357 4 5 1 360 3 4 357 352 353 351 351 348 339 337 325 308 302 305 280 250 248 242 217 215 232 218 207 205 185 194 185
91 351 157 326 24 22 45 255 238 202 177 156 152 181 161 120 112 122 209 36 73 107 169 151 206 197 55 14 117 116 116 104 97 105 90 58 44 36 28 24 21 13 9 3 0 356 355 354 352 350 351 349 355 358 359 359 360 5 6 3 359 357 352 343 348 351 344 335 329 333 319 298 266 241 248 253 263 234 230 228 210 212 197 203 196 188
150 129 88 61 138 120 236 352 25 83 114 115 103 107 139 124 107 100 132 222 50 51 114 118 119 219 49 42 47 92 101 96 96 95 86 62 43 36 28 24 23 21 11 6 1 357 356 355 353 350 354 355 357 355 357 357 1 360 0 0 357 353 346 344 344 338 340 337 332 329 327 318 280 239 246 259 269 261 255 240 222 204 206 209 199 198
85 76 63 346 329 304 307 301 352 49 44 63 33 44 52 79 155 167 172 175 128 153 78 33 74 175 108 80 68 82 84 79 64 68 76 60 47 33 30 24 20 17 15 8 3 359 357 353 353 356 358 359 359 359 359 356 356 355 357 357 349 348 344 345 345 336 329 344 342 335 329 322 314 279 243 241 245 251 249 248 236 212 214 208 185 189
84 296 113 87 22 338 341 351 355 350 57 69 63 338 323 177 69 131 105 67 99 200 170 131 184 209 132 93 80 78 84 78 74 66 59 66 48 41 33 29 20 20 18 11 7 0 357 359 1 358 359 1 0 358 359 0 357 355 352 352 349 345 346 345 340 337 335 341 341 343 341 335 327 316 296 248 224 233 234 235 237 227 222 212 196 186
86 155 88 114 136 131 132 152 183 126 81 337 65 357 20 46 53 65 112 40 110 205 117 121 139 108 117 111 85 71 76 75 67 72 74 62 56 42 40 35 28 24 19 14 9 5 1 355 354 360 2 2 3 359 358 357 357 355 354 352 351 349 347 348 342 344 343 341 340 339 334 328 326 323 316 301 250 241 235 228 228 220 228 225 212 184
114 77 53 152 152 174 198 202 266 103 41 56 332 29 359 20 16 105 95 104 172 173 109 237 162 139 137 124 97 64 52 66 71 67 58 55 51 46 45 44 40 34 24 16 10 2 359 2 359 357 2 1 358 356 356 354 354 355 354 354 355 352 348 347 347 346 345 343 341 336 331 321 317 314 312 303 269 250 236 222 219 206 206 187 187 191
81 76 15 65 55 75 93 74 49 78 99 57 53 21 22 30 21 69 113 187 155 111 271 146 145 121 136 115 111 88 72 68 64 56 56 55 51 38 37 40 38 37 29 21 16 11 4 357 352 357 358 359 358 353 354 354 352 353 354 354 353 352 353 345 350 350 349 347 344 339 329 318 313 313 308 300 281 260 245 233 227 216 207 199 198 183
108 99 99 80 60 57 43 76 88 76 71 74 69 58 47 31 44 75 66 39 76 141 182 145 136 113 118 106 101 87 74 72 63 59 53 55 54 47 43 38 34 29 21 18 12 7 4 3 357 357 359 358 357 360 356 353 351 350 353 358 357 355 356 345 352 354 354 351 347 339 328 320 314 313 310 303 288 264 246 234 222 214 201 198 198 187
99 47 68 101 87 51 35 40 66 95 91 64 50 55 57 59 61 68 66 42 87 99 118 125 111 98 105 111 101 93 81 74 72 61 55 52 46 48 46 39 33 26 17 11 6 3 2 1 0 357 356 360 2 359 358 354 352 350 353 356 356 358 353 349 353 357 357 358 351 338 334 327 323 319 315 310 294 268 247 236 228 218 208 200 195 201
106 173 185 244 77 45 32 56 66 77 84 74 51 53 59 62 63 60 77 71 79 80 98 109 106 105 83 101 104 96 87 83 68 59 58 49 47 47 46 41 31 18 8 9 4 2 0 4 4 2 2 2 0 358 357 354 349 351 357 357 357 357 351 351 355 355 357 358 352 345 336 335 334 328 324 323 311 279 254 239 226 220 213 202 193 198
63 149 162 198 95 71 15 80 90 89 80 72 50 32 26 17 44 11 43 336 111 140 129 117 107 132 134 114 102 87 80 73 71 68 60 50 47 51 48 41 34 15 11 4 360 3 6 5 2 3 2 359 357 356 360 358 356 0 1 355 357 351 350 357 356 356 356 354 353 351 346 341 338 337 331 327 326 307 261 238 226 219 213 199 192 193
83 134 130 132 85 95 194 33 24 11 58 48 27 37 49 72 97 81 36 33 40 128 135 147 126 106 129 126 109 89 81 77 66 55 62 59 53 52 46 41 33 14 11 3 0 0 3 5 3 0 359 358 355 357 358 359 360 1 354 355 349 352 0 0 1 357 359 355 355 354 350 345 343 340 339 335 325 326 295 249 237 226 206 204 195 175
81 117 108 113 97 147 193 1 327 64 95 143 333 301 302 39 95 73 43 37 33 56 80 92 121 128 121 116 111 111 97 86 85 75 62 57 54 47 44 41 23 17 13 8 357 2 2 4 360 358 358 355 352 357 351 358 1 350 347 350 354 10 6 6 4 4 359 357 357 353 353 350 350 348 344 344 345 346 349 319 264 228 209 187 148 157
115 86 106 75 113 145 112 20 64 136 225 345 347 35 96 100 92 87 69 61 69 88 98 98 109 110 105 100 109 109 107 96 77 72 57 46 47 53 50 37 24 26 18 7 7 5 5 358 352 356 359 359 357 353 355 356 358 348 357 358 9 15 14 11 9 8 2 0 356 355 355 352 352 354 350 355 358 3 4 5 10 2 1 69 87 88
123 107 128 52 62 74 91 72 144 226 70 90 78 83 111 100 114 90 64 49 54 72 97 106 107 108 111 112 110 109 102 95 80 59 55 51 49 55 53 38 20 21 18 13 10 4 1 357 355 355 351 349 356 354 356 353 346 359 359 359 13 12 12 11 13 10 4 1 358 356 354 350 351 354 356 4 12 14 14 16 13 16 16 353 52 60
121 98 100 83 352 127 111 62 84 117 124 133 129 222 201 205 233 129 119 37 36 88 114 119 119 118 118 119 120 119 119 102 77 52 23 31 30 40 52 47 31 24 19 12 6 3 5 3 360 354 354 355 358 357 351 344 349 359 4 9 10 12 10 10 12 8 3 1 357 356 355 355 356 357 1 7 22 22 22 19 18 23 16 15 5 66
17 123 214 107 308 111 131 105 109 17 230 198 194 136 139 128 141 161 101 118 55 89 129 130 128 131 131 134 141 147 154 83 58 47 8 19 24 37 38 43 37 35 29 16 10 14 14 8 0 359 2 354 355 353 347 349 353 2 9 10 8 12 11 12 7 359 359 359 356 356 356 356 359 3 4 9 22 29 28 24 29 31 21 22 1 47
44 69 100 104 142 95 76 118 157 179 234 83 157 192 262 18 165 137 70 136 106 114 145 137 135 146 151 153 159 151 160 86 118 131 89 1 26 22 48 38 34 35 31 26 20 16 6 0 355 0 5 3 360 345 348 354 358 4 8 6 6 10 14 10 1 356 353 351 354 358 358 357 4 8 5 8 19 30 33 33 26 31 36 23 9 41
45 6 37 67 81 86 131 98 165 184 174 159 165 257 264 50 142 95 26 242 151 110 143 147 149 155 161 159 151 165 150 131 179 161 161 114 79 45 43 37 31 23 19 11 19 15 9 6 14 10 3 358 344 336 351 355 357 4 7 4 4 15 13 3 352 347 348 351 356 0 4 3 9 10 10 6 11 21 44 47 41 28 38 33 359 46
5 8 43 134 127 87 83 82 35 10 12 233 208 269 282 176 164 110 211 169 142 113 120 142 148 151 156 155 161 130 323 31 127 135 136 107 73 44 32 38 36 28 23 16 11 8 15 11 15 6 356 345 340 346 351 355 3 8 3 5 13 15 1 345 344 353 358 359 1 4 7 8 12 15 11 8 7 14 32 37 58 50 40 36 10 26
25 84 1 69 51 81 99 95 174 200 198 149 221 249 254 138 104 228 191 123 132 122 95 132 138 144 147 130 109 103 110 103 106 107 103 81 81 60 44 33 25 17 12 16 19 16 5 6 10 9 4 356 355 355 355 358 12 3 358 5 13 7 351 343 346 357 7 10 7 4 7 12 15 19 15 8 10 16 37 28 37 52 58 49 28 30
186 92 109 109 160 53 26 83 46 216 232 36 99 56 3 142 222 119 124 100 111 119 121 111 128 134 124 111 120 122 116 106 106 106 98 89 75 59 42 28 20 11 4 6 3 1 7 7 4 2 357 353 356 357 359 6 7 358 354 8 358 357 358 348 349 1 12 15 13 9 9 13 17 19 18 13 10 24 31 31 34 42 44 48 49 37
262 86 126 200 212 130 121 140 197 331 344 317 308 168 224 107 136 137 126 120 116 127 128 121 114 128 128 127 130 124 118 114 102 102 90 71 69 48 33 24 14 15 5 359 2 355 3 4 356 353 346 350 354 359 3 12 4 358 360 357 339 356 358 358 356 3 12 17 18 13 12 12 15 19 23 20 17 25 26 26 29 34 35 44 46 46
322 161 207 139 178 141 184 181 23 63 55 30 92 104 102 100 109 113 109 120 134 127 130 121 125 122 123 124 121 121 115 111 111 103 100 90 67 37 22 1 6 4 360 356 342 352 5 359 339 342 348 347 354 353 359 6 10 1 358 337 344 355 355 356 3 12 10 13 16 18 11 17 19 16 21 23 26 28 19 23 25 35 26 34 41 47
87 94 98 88 91 94 60 67 102 79 81 83 73 87 105 103 94 107 118 118 96 112 120 121 117 116 114 118 121 114 115 128 116 99 86 61 38 5 4 6 359 357 352 352 354 354 350 351 354 358 353 341 349 351 352 353 7 3 339 334 349 352 351 356 9 14 14 10 16 15 16 20 15 19 20 24 30 34 29 25 25 29 23 28 34 34
271 322 37 98 166 85 58 51 85 94 91 87 92 79 79 89 99 104 102 102 113 107 100 98 113 114 117 113 119 127 129 123 105 86 75 59 30 358 356 342 328 329 339 346 328 340 352 4 355 350 349 341 338 345 341 349 355 351 341 345 344 348 351 4 11 14 14 14 9 14 20 23 16 21 23 20 22 34 32 27 28 32 28 22 25 37
10 135 84 84 83 85 131 120 94 87 86 91 93 104 99 94 88 82 94 101 103 99 100 109 100 94 104 111 125 123 124 116 115 141 103 70 260 320 309 316 320 338 333 318 315 349 347 353 346 336 337 328 326 338 341 349 351 343 343 346 349 346 357 9 9 9 12 10 9 16 14 21 20 27 31 27 28 29 26 27 30 41 32 23 17 32
138 103 109 170 102 90 99 105 108 89 77 73 80 75 91 107 106 101 99 99 98 94 87 69 83 123 117 129 118 115 114 159 165 162 162 235 329 312 309 312 316 311 310 336 333 342 325 317 333 332 329 324 330 339 339 340 343 346 345 345 348 352 2 10 3 10 12 6 10 11 3 15 28 27 22 31 46 49 40 32 26 31 40 26 14 12
66 70 122 111 112 153 161 156 155 137 141 118 101 114 111 105 106 105 103 101 104 106 103 97 66 65 103 124 133 128 137 177 211 151 176 221 254 281 303 317 316 323 318 315 313 330 341 351 350 333 327 320 335 339 337 333 337 340 343 347 353 356 5 7 13 16 7 3 7 2 360 3 14 23 35 30 26 49 58 52 55 50 53 25 16 49
128 171 155 150 152 174 158 160 91 83 110 128 140 125 116 118 116 117 119 122 115 113 118 111 108 96 89 63 97 132 150 161 203 155 115 301 266 245 257 283 311 320 317 343 354 346 351 338 346 350 344 338 334 338 334 329 332 343 341 345 346 358 357 13 19 15 8 5 2 349 344 353 7 6 19 35 42 26 54 53 37 42 45 47 47 51